Torna al catalogo

SPOQC

AttivoScienzaSSO
NORAD 68423·PAYLOAD·🇳🇱 Netherlands

Lanciato Mar 30, 2026 da Vandenberg Space Force Base

Loading…

Prossimi Passaggi (prossime 24 ore)

TLE

AggiornatoSource: Space-Track

Epoca: Sep 13, 2026, 20:06 UTC

1 68423U 26067H   26256.83759977  .00004335  00000-0  20713-3 0  9991
2 68423  97.4607 214.1650 0001688  69.4141 290.7275 15.19549798 25406

Traccia SPOQC in tempo reale con AllMySat

Download on the App Store